Volver al catálogo

BREEZE-M DEB

ActivoHEO
NORAD 48535·DEBRIS·🇷🇺 Russia

Lanzado Mar 14, 2008 desde Baikonur Cosmodrome

Loading…

Próximos Pases (próximas 24 horas)

TLE

ActualizadoSource: Space-Track

Época: Sep 13, 2026, 17:44 UTC

1 48535U 08011EA  26256.73944263  .00001088  00000-0  29936-1 0  9991
2 48535  50.3805  63.0644 6400946  70.7664 345.2727  3.08512169 52800

Sigue BREEZE-M DEB en tiempo real con AllMySat

Download on the App Store